DW6860 Weather Reports


Display with metric or nautical units.
time (UTC)temp
F
wind
direction
speed
MPH
gust
MPH
rain 1hr
in
rain 24hr
in
rain mn
in
humidity
%
barometer
mb
20260508022212 53 106 0.0 3.0 0.00 0.00 0.00 77 1016.1
20260508022011 53 63 0.0 3.0 0.00 0.00 0.00 77 1016.2
20260508021705 53 56 0.0 3.0 0.00 0.00 0.00 77 1016.1
20260508021512 53 58 0.0 3.0 0.00 0.00 0.00 77 1016.2
20260508021219 53 46 0.0 3.0 0.00 0.00 0.00 77 1016.0
20260508021011 53 77 0.0 3.0 0.00 0.00 0.00 77 1016.2
20260508020714 53 83 0.0 4.0 0.00 0.00 0.00 76 1016.0
20260508020511 54 84 0.0 4.0 0.00 0.00 0.00 76 1016.1
20260508020207 53 111 0.0 4.0 0.00 0.00 0.00 76 1016.1
20260508020011 54 57 0.0 4.0 0.00 0.00 0.00 76 1016.2
20260508015706 54 44 0.0 1.0 0.00 0.00 0.00 76 1016.1
20260508015511 54 44 0.0 1.0 0.00 0.00 0.00 76 1016.1
20260508015139 54 44 0.0 1.0 0.00 0.00 0.00 76 1016.1
20260508015011 54 49 0.0 3.0 0.00 0.00 0.00 76 1016.1
20260508014642 54 44 0.0 3.0 0.00 0.00 0.00 76 1016.1
20260508014511 54 65 0.0 3.0 0.00 0.00 0.00 76 1016.2
20260508014136 54 44 0.0 3.0 0.00 0.00 0.00 75 1016.1
20260508014011 54 134 0.0 3.0 0.00 0.00 0.00 75 1016.1
20260508013624 54 143 0.0 3.0 0.00 0.00 0.00 75 1016.0
20260508013510 54 92 0.0 3.0 0.00 0.00 0.00 75 1016.2
20260508013111 54 152 0.0 2.0 0.00 0.00 0.00 75 1016.0
20260508013011 54 60 0.0 2.0 0.00 0.00 0.00 75 1016.1
20260508012607 54 71 0.0 2.0 0.00 0.00 0.00 75 1016.1
20260508012511 54 55 0.0 1.0 0.00 0.00 0.00 75 1016.2
20260508012148 54 55 0.0 3.0 0.00 0.00 0.00 74 1016.1
20260508012123 54 55 0.0 3.0 0.00 0.00 0.00 74 1016.1
20260508012011 54 68 0.0 3.0 0.00 0.00 0.00 74 1016.1
20260508011513 54 72 0.0 3.0 0.00 0.00 0.00 74 1016.1
20260508011104 54 85 0.0 1.0 0.00 0.00 0.00 74 1016.1
20260508011011 54 85 0.0 1.0 0.00 0.00 0.00 74 1016.2
20260508010542 54 85 0.0 2.0 0.00 0.00 0.00 73 1016.1
20260508010532 54 90 0.0 2.0 0.00 0.00 0.00 73 1016.2
20260508010050 54 85 0.0 2.0 0.00 0.00 0.00 73 1016.2
20260508010011 54 92 0.0 2.0 0.00 0.00 0.00 73 1016.2
20260508005542 54 98 0.0 2.0 0.00 0.00 0.00 73 1016.2
20260508005511 54 99 0.0 2.0 0.00 0.00 0.00 73 1016.2
20260508005047 54 98 0.0 2.0 0.00 0.00 0.00 73 1016.1
20260508005011 54 89 0.0 2.0 0.00 0.00 0.00 73 1016.2
20260508004530 55 71 0.0 1.0 0.00 0.00 0.00 72 1016.1
20260508004511 54 67 0.0 1.0 0.00 0.00 0.00 72 1016.2
20260508004026 55 67 0.0 1.0 0.00 0.00 0.00 72 1016.2
20260508004013 54 67 0.0 1.0 0.00 0.00 0.00 72 1016.2
20260508003526 55 67 0.0 1.0 0.00 0.00 0.00 72 1016.2
20260508003513 55 67 0.0 1.0 0.00 0.00 0.00 72 1016.2
20260508003016 55 67 0.0 1.0 0.00 0.00 0.00 72 1016.3
20260508003012 55 67 0.0 1.0 0.00 0.00 0.00 72 1016.3
20260508002510 55 67 0.0 1.0 0.00 0.00 0.00 71 1016.3
20260508002011 55 67 0.0 1.0 0.00 0.00 0.00 71 1016.3
20260508001937 55 67 0.0 1.0 0.00 0.00 0.00 71 1016.2
20260508001510 55 0 0.0 0.0 0.00 0.00 0.00 71 1016.3
20260508001450 55 67 0.0 1.0 0.00 0.00 0.00 71 1016.3
20260508001438 55 67 0.0 0.0 0.00 0.00 0.00 71 1016.2
20260508001011 55 67 0.0 1.0 0.00 0.00 0.00 71 1016.3
20260508000511 55 67 0.0 1.0 0.00 0.00 0.00 71 1016.3
20260508000435 55 67 0.0 1.0 0.00 0.00 0.00 70 1016.3
20260508000011 55 67 0.0 1.0 0.00 0.00 0.00 70 1016.3
20260507235925 55 67 0.0 1.0 0.00 0.00 0.00 70 1016.3
20260507235513 55 67 0.0 2.0 0.00 0.00 0.00 70 1016.3
20260507235422 55 67 0.0 2.0 0.00 0.00 0.00 70 1016.3
20260507235011 55 67 0.0 2.0 0.00 0.00 0.00 70 1016.3
20260507234917 55 67 0.0 2.0 0.00 0.00 0.00 70 1016.3
20260507234511 55 67 0.0 1.0 0.00 0.00 0.00 70 1016.4
20260507234419 55 67 0.0 1.0 0.00 0.00 0.00 70 1016.3
20260507234011 55 67 0.0 1.0 0.00 0.00 0.00 70 1016.4
20260507234000 55 67 0.0 2.0 0.00 0.00 0.00 69 1016.4
20260507233923 55 67 0.0 1.0 0.00 0.00 0.00 70 1016.4
20260507233615 55 67 0.0 2.0 0.00 0.00 0.00 69 1016.3
20260507233510 55 67 0.0 2.0 0.00 0.00 0.00 70 1016.5
20260507233011 55 67 0.0 2.0 0.00 0.00 0.00 69 1016.4
20260507232511 55 67 0.0 1.0 0.00 0.00 0.00 69 1016.5
20260507232348 55 67 0.0 1.0 0.00 0.00 0.00 69 1016.4
20260507232011 56 0 0.0 0.0 0.00 0.00 0.00 69 1016.5
20260507231840 56 67 0.0 0.0 0.00 0.00 0.00 69 1016.5
20260507231511 56 67 0.0 1.0 0.00 0.00 0.00 69 1016.5
20260507231332 56 67 0.0 1.0 0.00 0.00 0.00 69 1016.3
20260507231011 56 67 0.0 1.0 0.00 0.00 0.00 69 1016.4
20260507230833 56 67 0.0 1.0 0.00 0.00 0.00 69 1016.4
20260507230511 56 67 0.0 1.0 0.00 0.00 0.00 69 1016.4
20260507230332 56 67 0.0 1.0 0.00 0.00 0.00 69 1016.5
20260507230011 56 67 0.0 1.0 0.00 0.00 0.00 69 1016.5
20260507225932 56 67 0.0 1.0 0.00 0.00 0.00 68 1016.5
20260507225844 56 67 0.0 1.0 0.00 0.00 0.00 69 1016.5
20260507225511 56 67 0.0 1.0 0.00 0.00 0.00 68 1016.5
20260507225011 56 67 0.0 1.0 0.00 0.00 0.00 68 1016.5
20260507224819 56 67 0.0 1.0 0.00 0.00 0.00 68 1016.4
20260507224511 56 67 0.0 1.0 0.00 0.00 0.00 68 1016.5
20260507224320 56 67 0.0 1.0 0.00 0.00 0.00 68 1016.4
20260507224011 56 67 0.0 1.0 0.00 0.00 0.00 68 1016.5
20260507223823 56 67 0.0 1.0 0.00 0.00 0.00 68 1016.5
20260507223510 56 67 0.0 1.0 0.00 0.00 0.00 67 1016.5
20260507223321 56 67 0.0 1.0 0.00 0.00 0.00 68 1016.4
20260507223011 56 0 0.0 0.0 0.00 0.00 0.00 67 1016.6
20260507222810 56 67 0.0 0.0 0.00 0.00 0.00 67 1016.6
20260507222511 56 0 0.0 0.0 0.00 0.00 0.00 67 1016.5
20260507222314 56 67 0.0 0.0 0.00 0.00 0.00 67 1016.5
20260507222012 56 0 0.0 0.0 0.00 0.00 0.00 67 1016.5
20260507221812 56 67 0.0 0.0 0.00 0.00 0.00 67 1016.5
20260507221511 56 0 0.0 0.0 0.00 0.00 0.00 66 1016.4
20260507221314 56 67 0.0 0.0 0.00 0.00 0.00 66 1016.5
20260507221012 56 0 0.0 0.0 0.00 0.00 0.00 66 1016.5
20260507220814 56 67 0.0 0.0 0.00 0.00 0.00 66 1016.4
20260507220511 56 0 0.0 0.0 0.00 0.00 0.00 66 1016.5
20260507220317 56 67 0.0 0.0 0.00 0.00 0.00 66 1016.4
20260507215811 57 67 0.0 0.0 0.00 0.00 0.00 66 1016.3
20260507215510 56 67 0.0 1.0 0.00 0.00 0.00 66 1016.4
20260507215316 57 67 0.0 1.0 0.00 0.00 0.00 66 1016.4
20260507215012 57 67 0.0 1.0 0.00 0.00 0.00 66 1016.4
20260507214809 57 67 0.0 1.0 0.00 0.00 0.00 65 1016.3
20260507214511 57 0 0.0 0.0 0.00 0.00 0.00 65 1016.5
20260507214307 57 67 0.0 0.0 0.00 0.00 0.00 65 1016.3
20260507214012 57 0 0.0 0.0 0.00 0.00 0.00 65 1016.3
20260507213805 57 67 0.0 0.0 0.00 0.00 0.00 65 1016.2
20260507213511 57 0 0.0 0.0 0.00 0.00 0.00 65 1016.3
20260507213314 57 67 0.0 0.0 0.00 0.00 0.00 65 1016.2
20260507213011 57 0 0.0 0.0 0.00 0.00 0.00 64 1016.3
20260507212841 57 67 0.0 0.0 0.00 0.00 0.00 64 1016.3
20260507212826 57 67 0.0 0.0 0.00 0.00 0.00 64 1016.3
20260507212512 57 0 0.0 0.0 0.00 0.00 0.00 64 1016.4
20260507212011 57 0 0.0 0.0 0.00 0.00 0.00 64 1016.4
20260507211817 57 67 0.0 1.0 0.00 0.00 0.00 64 1016.3
20260507211513 57 67 0.0 1.0 0.00 0.00 0.00 64 1016.4
20260507211358 57 67 0.0 1.0 0.00 0.00 0.00 64 1016.3
20260507211325 57 67 0.0 1.0 0.00 0.00 0.00 64 1016.3
20260507211011 57 67 0.0 1.0 0.00 0.00 0.00 64 1016.4
20260507210511 57 67 0.0 1.0 0.00 0.00 0.00 64 1016.4
20260507210301 57 67 0.0 1.0 0.00 0.00 0.00 63 1016.3
20260507210011 57 67 0.0 1.0 0.00 0.00 0.00 63 1016.3
20260507205758 57 67 0.0 1.0 0.00 0.00 0.00 63 1016.2
20260507205510 57 0 0.0 0.0 0.00 0.00 0.00 63 1016.3
20260507205306 57 67 0.0 1.0 0.00 0.00 0.00 63 1016.1
20260507205011 58 67 0.0 1.0 0.00 0.00 0.00 63 1016.3
20260507204739 58 67 0.0 1.0 0.00 0.00 0.00 63 1016.2
20260507204510 58 67 0.0 2.0 0.00 0.00 0.00 63 1016.2
20260507204242 58 67 0.0 2.0 0.00 0.00 0.00 63 1016.2
20260507204011 58 51 0.0 2.0 0.00 0.00 0.00 63 1016.2
20260507203819 58 24 0.0 3.0 0.00 0.00 0.00 62 1016.2
20260507203756 58 67 0.0 2.0 0.00 0.00 0.00 63 1016.2
20260507203510 58 35 0.0 2.0 0.00 0.00 0.00 62 1016.2
20260507203011 58 39 1.0 3.0 0.00 0.00 0.00 62 1016.2
20260507202731 58 24 1.0 3.0 0.00 0.00 0.00 62 1016.1
20260507202531 58 44 1.0 3.0 0.00 0.00 0.00 62 1016.2
20260507202242 58 51 0.0 2.0 0.00 0.00 0.00 62 1016.2
20260507202225 58 51 0.0 0.0 0.00 0.00 0.00 61 1015.8
20260507202214 58 51 0.0 1.0 0.00 0.00 0.00 61 1016.0
20260507202011 58 51 0.0 2.0 0.00 0.00 0.00 62 1016.2
20260507201926 58 51 0.0 1.0 0.00 0.00 0.00 62 1016.1
20260507201510 58 51 0.0 1.0 0.00 0.00 0.00 62 1016.0
20260507201032 58 51 0.0 1.0 0.00 0.00 0.00 61 1016.1
20260507200807 58 51 0.0 1.0 0.00 0.00 0.00 61 1015.8
20260507200531 58 51 0.0 1.0 0.00 0.00 0.00 61 1015.9
20260507200011 58 0 0.0 0.0 0.00 0.00 0.00 61 1015.9
20260507195722 58 51 0.0 1.0 0.00 0.00 0.00 60 1015.8
20260507195511 58 51 0.0 1.0 0.00 0.00 0.00 60 1015.8
20260507195211 58 51 0.0 1.0 0.00 0.00 0.00 60 1015.8
20260507195031 58 51 0.0 1.0 0.00 0.00 0.00 60 1015.8
20260507194708 59 51 0.0 1.0 0.00 0.00 0.00 60 1015.7
20260507194510 59 51 0.0 1.0 0.00 0.00 0.00 60 1015.7
20260507194209 59 51 0.0 1.0 0.00 0.00 0.00 60 1015.8
20260507194011 59 51 0.0 1.0 0.00 0.00 0.00 60 1015.7
20260507193802 59 51 0.0 1.0 0.00 0.00 0.00 59 1015.7
20260507193727 59 51 0.0 1.0 0.00 0.00 0.00 59 1015.7
20260507193532 59 51 0.0 1.0 0.00 0.00 0.00 59 1015.8
20260507193011 59 51 0.0 2.0 0.00 0.00 0.00 59 1015.7
20260507192707 59 51 0.0 2.0 0.00 0.00 0.00 59 1015.7
20260507192510 59 51 0.0 2.0 0.00 0.00 0.00 59 1015.7
20260507192204 59 51 0.0 2.0 0.00 0.00 0.00 59 1015.6
20260507192011 59 51 0.0 1.0 0.00 0.00 0.00 59 1015.6
20260507191827 59 51 0.0 2.0 0.00 0.00 0.00 58 1015.6
20260507191716 59 51 0.0 1.0 0.00 0.00 0.00 59 1015.5
20260507191533 59 51 0.0 1.0 0.00 0.00 0.00 59 1015.6
20260507191032 59 51 0.0 2.0 0.00 0.00 0.00 58 1015.7
20260507190650 59 51 0.0 2.0 0.00 0.00 0.00 58 1015.5
20260507190510 59 50 0.0 2.0 0.00 0.00 0.00 58 1015.6
20260507190158 59 51 0.0 2.0 0.00 0.00 0.00 58 1015.6
20260507190012 60 44 0.0 2.0 0.00 0.00 0.00 58 1015.6
20260507185634 60 35 0.0 2.0 0.00 0.00 0.00 58 1015.6
20260507185510 60 39 0.0 2.0 0.00 0.00 0.00 58 1015.6
20260507185139 60 35 1.0 2.0 0.00 0.00 0.00 57 1015.6
20260507185032 60 51 1.0 2.0 0.00 0.00 0.00 57 1015.7
20260507184639 60 35 1.0 2.0 0.00 0.00 0.00 57 1015.6
20260507184609 60 55 1.0 3.0 0.00 0.00 0.00 56 1015.6
20260507184510 60 48 1.0 3.0 0.00 0.00 0.00 56 1015.6
20260507184011 60 38 1.0 3.0 0.00 0.00 0.00 56 1015.7
20260507183645 60 38 1.0 3.0 0.00 0.00 0.00 56 1015.5
20260507183510 60 38 1.0 3.0 0.00 0.00 0.00 56 1015.6
20260507183136 60 38 1.0 3.0 0.00 0.00 0.00 56 1015.6
20260507183102 60 38 1.0 3.0 0.00 0.00 0.00 56 1015.5
20260507183011 60 37 1.0 3.0 0.00 0.00 0.00 56 1015.6
20260507182510 60 30 1.0 3.0 0.00 0.00 0.00 56 1015.6
20260507182128 60 38 1.0 3.0 0.00 0.00 0.00 55 1015.5
20260507182011 60 29 1.0 3.0 0.00 0.00 0.00 55 1015.5
20260507181621 60 19 1.0 3.0 0.00 0.00 0.00 55 1015.6
20260507181510 60 28 1.0 4.0 0.00 0.00 0.00 55 1015.6
20260507181115 60 25 1.0 4.0 0.00 0.00 0.00 55 1015.6
20260507181011 60 34 1.0 4.0 0.00 0.00 0.00 55 1015.6
20260507180615 60 25 1.0 4.0 0.00 0.00 0.00 54 1015.5
20260507180510 60 62 0.0 3.0 0.00 0.00 0.00 54 1015.6
20260507180114 60 65 0.0 2.0 0.00 0.00 0.00 54 1015.5
20260507180013 60 85 0.0 2.0 0.00 0.00 0.00 54 1015.6
20260507175615 61 97 0.0 2.0 0.00 0.00 0.00 53 1015.5
20260507175511 61 108 0.0 1.0 0.00 0.00 0.00 53 1015.6
20260507175122 61 105 1.0 3.0 0.00 0.00 0.00 53 1015.6
20260507175011 61 36 1.0 3.0 0.00 0.00 0.00 53 1015.5
20260507174634 61 26 1.0 3.0 0.00 0.00 0.00 52 1015.4
20260507174555 61 13 1.0 3.0 0.00 0.00 0.00 52 1015.5
20260507174510 61 43 1.0 3.0 0.00 0.00 0.00 52 1015.5
20260507174010 61 59 1.0 3.0 0.00 0.00 0.00 52 1015.5
20260507173611 61 59 1.0 4.0 0.00 0.00 0.00 52 1015.6
20260507173531 61 54 1.0 4.0 0.00 0.00 0.00 52 1015.6
20260507173110 61 59 1.0 4.0 0.00 0.00 0.00 52 1015.5
20260507173011 61 36 1.0 4.0 0.00 0.00 0.00 52 1015.5
20260507172615 61 40 2.0 4.0 0.00 0.00 0.00 52 1015.4
20260507172510 61 21 2.0 4.0 0.00 0.00 0.00 52 1015.5
20260507172109 61 23 1.0 4.0 0.00 0.00 0.00 52 1015.4
20260507172010 61 19 1.0 4.0 0.00 0.00 0.00 52 1015.5
20260507171622 61 17 1.0 2.0 0.00 0.00 0.00 52 1015.5
20260507171510 61 17 1.0 2.0 0.00 0.00 0.00 53 1015.5
20260507171113 61 17 0.0 2.0 0.00 0.00 0.00 52 1015.5
20260507171011 61 17 0.0 2.0 0.00 0.00 0.00 52 1015.5
20260507170611 61 17 0.0 2.0 0.00 0.00 0.00 51 1015.5
20260507170510 61 17 0.0 2.0 0.00 0.00 0.00 52 1015.5
20260507170123 61 17 0.0 2.0 0.00 0.00 0.00 52 1015.5
20260507170011 61 17 0.0 2.0 0.00 0.00 0.00 52 1015.4
20260507165611 61 17 0.0 2.0 0.00 0.00 0.00 52 1015.4
20260507165511 61 17 0.0 2.0 0.00 0.00 0.00 52 1015.4
20260507165108 61 17 0.0 1.0 0.00 0.00 0.00 51 1015.4
20260507165012 61 17 0.0 1.0 0.00 0.00 0.00 51 1015.4
20260507164604 61 17 0.0 1.0 0.00 0.00 0.00 52 1015.4
20260507164511 61 17 0.0 1.0 0.00 0.00 0.00 52 1015.4
20260507164101 61 17 0.0 2.0 0.00 0.00 0.00 51 1015.4
20260507164012 61 17 0.0 2.0 0.00 0.00 0.00 51 1015.4
20260507163549 61 17 1.0 3.0 0.00 0.00 0.00 52 1015.4
20260507163531 61 17 1.0 3.0 0.00 0.00 0.00 52 1015.5
20260507163219 61 17 1.0 4.0 0.00 0.00 0.00 51 1015.4
20260507163113 61 17 1.0 3.0 0.00 0.00 0.00 51 1015.3
20260507163011 61 14 1.0 3.0 0.00 0.00 0.00 51 1015.3
20260507162510 61 13 1.0 4.0 0.00 0.00 0.00 51 1015.4
20260507162053 62 344 1.0 4.0 0.00 0.00 0.00 52 1015.4
20260507162031 62 15 1.0 4.0 0.00 0.00 0.00 52 1015.4
20260507161540 62 342 1.0 4.0 0.00 0.00 0.00 52 1015.3
20260507161510 62 35 1.0 4.0 0.00 0.00 0.00 52 1015.4
20260507161044 62 52 1.0 4.0 0.00 0.00 0.00 51 1015.5
20260507161010 62 34 1.0 4.0 0.00 0.00 0.00 51 1015.4
20260507160540 62 32 1.0 3.0 0.00 0.00 0.00 51 1015.5
20260507160510 62 34 1.0 3.0 0.00 0.00 0.00 51 1015.5
20260507160054 62 32 1.0 3.0 0.00 0.00 0.00 51 1015.3
20260507160013 62 49 1.0 3.0 0.00 0.00 0.00 51 1015.4
20260507155535 62 47 2.0 5.0 0.00 0.00 0.00 51 1015.3
20260507155510 62 26 2.0 5.0 0.00 0.00 0.00 51 1015.4
20260507155040 62 82 2.0 5.0 0.00 0.00 0.00 51 1015.3
20260507155011 62 8 2.0 5.0 0.00 0.00 0.00 51 1015.3
20260507154558 62 300 1.0 4.0 0.00 0.00 0.00 51 1015.4
20260507154540 62 344 1.0 4.0 0.00 0.00 0.00 51 1015.3
20260507154510 62 342 1.0 4.0 0.00 0.00 0.00 51 1015.4
20260507154010 62 358 1.0 4.0 0.00 0.00 0.00 50 1015.4
20260507153537 62 22 1.0 4.0 0.00 0.00 0.00 50 1015.3
20260507153510 62 10 1.0 4.0 0.00 0.00 0.00 50 1015.4
20260507153038 62 335 2.0 4.0 0.00 0.00 0.00 51 1015.3
20260507153012 62 12 2.0 4.0 0.00 0.00 0.00 51 1015.3
20260507152534 62 22 2.0 5.0 0.00 0.00 0.00 51 1015.2
20260507152510 62 19 1.0 5.0 0.00 0.00 0.00 51 1015.2
20260507152040 62 33 1.0 5.0 0.00 0.00 0.00 51 1015.3
20260507152010 62 29 1.0 5.0 0.00 0.00 0.00 51 1015.3
20260507151710 62 16 2.0 4.0 0.00 0.00 0.00 50 1015.2
20260507151615 62 35 1.0 3.0 0.00 0.00 0.00 51 1015.3
20260507151510 62 22 1.0 3.0 0.00 0.00 0.00 51 1015.3
20260507151010 62 12 2.0 4.0 0.00 0.00 0.00 50 1015.3
20260507150550 62 24 2.0 5.0 0.00 0.00 0.00 51 1015.2
20260507150531 62 5 2.0 5.0 0.00 0.00 0.00 51 1015.3
20260507150053 62 0 2.0 6.0 0.00 0.00 0.00 52 1015.3
20260507150011 62 9 3.0 6.0 0.00 0.00 0.00 52 1015.3
20260507145538 62 5 2.0 6.0 0.00 0.00 0.00 52 1015.1
20260507145531 62 8 2.0 6.0 0.00 0.00 0.00 52 1015.2
20260507145033 62 32 1.0 4.0 0.00 0.00 0.00 52 1015.2
20260507145010 62 344 1.0 5.0 0.00 0.00 0.00 52 1015.2
20260507144526 62 5 2.0 5.0 0.00 0.00 0.00 53 1015.2
20260507144509 62 342 2.0 5.0 0.00 0.00 0.00 53 1015.3
20260507144031 62 357 2.0 5.0 0.00 0.00 0.00 52 1015.3
20260507144027 62 5 2.0 5.0 0.00 0.00 0.00 53 1015.2
20260507143529 62 345 3.0 7.0 0.00 0.00 0.00 53 1015.3
20260507143511 62 14 3.0 7.0 0.00 0.00 0.00 53 1015.3
20260507143046 62 347 3.0 7.0 0.00 0.00 0.00 52 1015.3
20260507143032 62 16 3.0 7.0 0.00 0.00 0.00 52 1015.4
20260507142534 62 341 4.0 8.0 0.00 0.00 0.00 52 1015.3
20260507142510 62 22 4.0 8.0 0.00 0.00 0.00 52 1015.3
20260507142021 62 18 3.0 8.0 0.00 0.00 0.00 52 1015.4
20260507142010 62 15 3.0 8.0 0.00 0.00 0.00 52 1015.4
20260507141525 62 355 3.0 8.0 0.00 0.00 0.00 52 1015.3
20260507141511 62 10 3.0 8.0 0.00 0.00 0.00 52 1015.4
20260507141023 62 11 4.0 8.0 0.00 0.00 0.00 51 1015.4
20260507141012 62 19 4.0 8.0 0.00 0.00 0.00 51 1015.5
20260507140524 62 339 5.0 10.0 0.00 0.00 0.00 51 1015.4
20260507140510 62 21 5.0 10.0 0.00 0.00 0.00 51 1015.4
20260507140038 62 19 3.0 12.0 0.00 0.00 0.00 51 1015.5
20260507140010 62 11 3.0 12.0 0.00 0.00 0.00 51 1015.5
20260507135519 62 30 1.0 12.0 0.00 0.00 0.00 49 1015.4
20260507135511 62 343 1.0 12.0 0.00 0.00 0.00 49 1015.4
20260507135031 62 13 1.0 2.0 0.00 0.00 0.00 49 1015.3
20260507135010 62 13 1.0 2.0 0.00 0.00 0.00 49 1015.3
20260507134525 62 13 1.0 5.0 0.00 0.00 0.00 48 1015.4
20260507134510 62 17 1.0 5.0 0.00 0.00 0.00 48 1015.4
20260507134034 62 13 1.0 5.0 0.00 0.00 0.00 49 1015.4
20260507134010 62 23 1.0 5.0 0.00 0.00 0.00 49 1015.4
20260507133537 62 34 0.0 2.0 0.00 0.00 0.00 48 1015.4
20260507133510 62 34 0.0 2.0 0.00 0.00 0.00 48 1015.4
20260507133022 62 34 1.0 4.0 0.00 0.00 0.00 48 1015.5
20260507133011 62 28 1.0 4.0 0.00 0.00 0.00 48 1015.5
20260507132516 62 34 2.0 4.0 0.00 0.00 0.00 49 1015.4
20260507132510 62 30 2.0 4.0 0.00 0.00 0.00 49 1015.5
20260507132015 62 13 1.0 4.0 0.00 0.00 0.00 49 1015.4
20260507132010 62 64 1.0 4.0 0.00 0.00 0.00 49 1015.5
20260507131520 62 166 1.0 4.0 0.00 0.00 0.00 49 1015.4
20260507131510 62 121 1.0 4.0 0.00 0.00 0.00 49 1015.5
20260507131033 62 112 1.0 4.0 0.00 0.00 0.00 49 1015.5
20260507131011 62 107 1.0 4.0 0.00 0.00 0.00 49 1015.5
20260507130517 61 70 1.0 5.0 0.00 0.00 0.00 51 1015.4
20260507130511 61 148 1.0 5.0 0.00 0.00 0.00 51 1015.4
20260507130051 61 159 2.0 5.0 0.00 0.00 0.00 49 1015.4
20260507130031 61 156 2.0 5.0 0.00 0.00 0.00 49 1015.4
20260507125520 62 171 1.0 5.0 0.00 0.00 0.00 49 1015.4
20260507125511 62 146 1.0 5.0 0.00 0.00 0.00 49 1015.4
20260507125017 62 178 1.0 4.0 0.00 0.00 0.00 49 1015.4
20260507125011 62 38 1.0 4.0 0.00 0.00 0.00 49 1015.4
20260507124514 62 89 1.0 4.0 0.00 0.00 0.00 48 1015.4
20260507124510 62 359 1.0 4.0 0.00 0.00 0.00 48 1015.4
20260507124016 62 342 2.0 4.0 0.00 0.00 0.00 49 1015.4
20260507124011 62 348 2.0 4.0 0.00 0.00 0.00 49 1015.4
20260507123719 62 5 2.0 5.0 0.00 0.00 0.00 50 1015.3
20260507123515 62 325 2.0 5.0 0.00 0.00 0.00 49 1015.3
20260507123510 62 6 2.0 5.0 0.00 0.00 0.00 49 1015.3
20260507123013 62 5 2.0 5.0 0.00 0.00 0.00 50 1015.3
20260507122627 62 350 2.0 7.0 0.00 0.00 0.00 52 1015.3
20260507122540 62 32 2.0 7.0 0.00 0.00 0.00 51 1015.3
20260507122510 62 357 2.0 7.0 0.00 0.00 0.00 51 1015.3
20260507122011 62 360 2.0 7.0 0.00 0.00 0.00 52 1015.3
20260507121512 61 342 1.0 6.0 0.00 0.00 0.00 52 1015.3
20260507121509 61 14 1.0 6.0 0.00 0.00 0.00 52 1015.3
20260507121019 61 15 1.0 6.0 0.00 0.00 0.00 51 1015.2
20260507121010 61 23 1.0 6.0 0.00 0.00 0.00 51 1015.2
20260507120518 61 35 1.0 3.0 0.00 0.00 0.00 51 1015.3
20260507120509 61 39 1.0 3.0 0.00 0.00 0.00 51 1015.3
20260507120111 61 19 3.0 5.0 0.00 0.00 0.00 53 1015.4
20260507120034 61 14 2.0 5.0 0.00 0.00 0.00 53 1015.3
20260507120010 61 38 2.0 5.0 0.00 0.00 0.00 53 1015.3
20260507115510 61 25 3.0 5.0 0.00 0.00 0.00 53 1015.4
20260507115241 60 26 1.0 5.0 0.00 0.00 0.00 54 1015.3
20260507115219 60 355 3.0 9.0 0.00 0.00 0.00 53 1015.4
20260507115106 60 0 3.0 7.0 0.00 0.00 0.00 53 1015.3
20260507115010 60 21 3.0 7.0 0.00 0.00 0.00 53 1015.3
20260507114531 60 17 4.0 9.0 0.00 0.00 0.00 53 1015.3
20260507114510 60 21 4.0 9.0 0.00 0.00 0.00 53 1015.3
20260507114031 60 13 3.0 9.0 0.00 0.00 0.00 53 1015.4
20260507113531 60 359 1.0 7.0 0.00 0.00 0.00 54 1015.3
20260507113148 60 0 3.0 6.0 0.00 0.00 0.00 54 1015.4
20260507113018 60 0 2.0 6.0 0.00 0.00 0.00 53 1015.3
20260507113010 60 15 2.0 6.0 0.00 0.00 0.00 54 1015.4
20260507112531 60 11 3.0 6.0 0.00 0.00 0.00 53 1015.4
20260507112010 60 357 3.0 7.0 0.00 0.00 0.00 54 1015.5
20260507111954 60 43 3.0 7.0 0.00 0.00 0.00 54 1015.3
20260507111510 60 360 3.0 9.0 0.00 0.00 0.00 55 1015.4
20260507111456 60 355 3.0 9.0 0.00 0.00 0.00 55 1015.3
20260507111010 60 10 3.0 9.0 0.00 0.00 0.00 55 1015.5
20260507110959 60 0 3.0 9.0 0.00 0.00 0.00 55 1015.4
20260507110950 60 348 3.0 9.0 0.00 0.00 0.00 55 1015.4
20260507110510 60 5 3.0 9.0 0.00 0.00 0.00 55 1015.4
20260507110010 60 12 2.0 9.0 0.00 0.00 0.00 55 1015.5
20260507105946 60 346 2.0 9.0 0.00 0.00 0.00 55 1015.4
20260507105510 60 59 2.0 9.0 0.00 0.00 0.00 54 1015.5
20260507105448 60 24 2.0 9.0 0.00 0.00 0.00 54 1015.5
20260507105010 61 61 2.0 8.0 0.00 0.00 0.00 51 1015.5
20260507104948 61 139 2.0 8.0 0.00 0.00 0.00 51 1015.4
20260507104510 62 22 3.0 11.0 0.00 0.00 0.00 51 1015.5
20260507104445 62 40 3.0 11.0 0.00 0.00 0.00 50 1015.4
20260507104010 63 354 3.0 11.0 0.00 0.00 0.00 51 1015.4
20260507103941 63 346 3.0 11.0 0.00 0.00 0.00 51 1015.4
20260507103510 62 343 2.0 6.0 0.00 0.00 0.00 53 1015.5
20260507103441 62 355 2.0 6.0 0.00 0.00 0.00 53 1015.5
20260507103428 60 174 2.0 6.0 0.00 0.00 0.00 53 1015.4
20260507103009 60 17 2.0 6.0 0.00 0.00 0.00 53 1015.5
20260507102521 61 22 3.0 7.0 0.00 0.00 0.00 53 1015.4
20260507102509 61 15 3.0 7.0 0.00 0.00 0.00 53 1015.4
20260507102457 60 40 3.0 7.0 0.00 0.00 0.00 54 1015.4
20260507102010 61 12 3.0 7.0 0.00 0.00 0.00 53 1015.3
20260507101511 61 1 2.0 7.0 0.00 0.00 0.00 55 1015.3
20260507101434 61 327 2.0 7.0 0.00 0.00 0.00 55 1015.3
20260507101051 62 53 3.0 10.0 0.00 0.00 0.00 54 1015.4
20260507101009 61 17 3.0 10.0 0.00 0.00 0.00 54 1015.4
20260507100954 61 0 3.0 10.0 0.00 0.00 0.00 54 1015.4
20260507100509 62 13 3.0 10.0 0.00 0.00 0.00 54 1015.4
20260507100219 62 327 3.0 10.0 0.00 0.00 0.00 55 1015.4
20260507100010 62 360 3.0 10.0 0.00 0.00 0.00 55 1015.4
20260507095511 61 6 4.0 10.0 0.00 0.00 0.00 56 1015.4
20260507095435 61 343 4.0 10.0 0.00 0.00 0.00 55 1015.4
20260507095031 61 15 3.0 8.0 0.00 0.00 0.00 57 1015.3
20260507094933 61 0 3.0 8.0 0.00 0.00 0.00 56 1015.2
20260507094510 61 32 3.0 8.0 0.00 0.00 0.00 56 1015.3
20260507094442 60 51 3.0 8.0 0.00 0.00 0.00 56 1015.3
20260507094148 59 24 3.0 8.0 0.00 0.00 0.00 60 1015.2
20260507094058 60 342 3.0 8.0 0.00 0.00 0.00 58 1015.2
20260507094011 60 37 3.0 8.0 0.00 0.00 0.00 57 1015.3
20260507093509 60 5 3.0 5.0 0.00 0.00 0.00 56 1015.3
20260507093501 60 64 3.0 7.0 0.00 0.00 0.00 57 1015.3
20260507093010 60 346 3.0 8.0 0.00 0.00 0.00 58 1015.2
20260507092510 60 1 3.0 8.0 0.00 0.00 0.00 60 1015.2
20260507092010 59 359 3.0 9.0 0.00 0.00 0.00 60 1015.2
20260507091933 59 33 3.0 9.0 0.00 0.00 0.00 60 1015.2
20260507091509 59 337 3.0 9.0 0.00 0.00 0.00 60 1015.2
20260507091429 59 355 3.0 9.0 0.00 0.00 0.00 61 1015.2
20260507091010 58 348 2.0 9.0 0.00 0.00 0.00 62 1015.1
20260507090918 58 336 2.0 6.0 0.00 0.00 0.00 62 1015.1
20260507090545 58 20 3.0 8.0 0.00 0.00 0.00 63 1015.0
20260507090510 58 8 3.0 8.0 0.00 0.00 0.00 60 1015.1
20260507090438 59 321 3.0 8.0 0.00 0.00 0.00 61 1015.1
20260507090010 58 12 3.0 8.0 0.00 0.00 0.00 63 1015.1
20260507085509 57 9 2.0 8.0 0.00 0.00 0.00 64 1015.1
20260507085423 57 329 2.0 8.0 0.00 0.00 0.00 64 1015.1
20260507085012 57 351 2.0 6.0 0.00 0.00 0.00 64 1015.1
20260507084918 57 333 2.0 6.0 0.00 0.00 0.00 65 1015.0
20260507084510 56 7 3.0 9.0 0.00 0.00 0.00 66 1015.1
20260507084419 56 9 3.0 9.0 0.00 0.00 0.00 65 1015.1
20260507084012 56 5 3.0 9.0 0.00 0.00 0.00 66 1015.1
20260507083916 56 30 4.0 9.0 0.00 0.00 0.00 66 1015.1
20260507083509 55 352 3.0 8.0 0.00 0.00 0.00 67 1015.1
20260507083413 55 331 3.0 8.0 0.00 0.00 0.00 67 1015.1
20260507083011 55 357 3.0 5.0 0.00 0.00 0.00 66 1015.2
20260507082913 56 343 3.0 5.0 0.00 0.00 0.00 66 1015.1
20260507082510 55 346 2.0 5.0 0.00 0.00 0.00 68 1015.1
20260507082413 55 22 3.0 5.0 0.00 0.00 0.00 68 1015.1
20260507082010 54 342 3.0 5.0 0.00 0.00 0.00 69 1015.1
20260507081925 54 342 3.0 5.0 0.00 0.00 0.00 70 1015.1
20260507081509 54 359 3.0 8.0 0.00 0.00 0.00 70 1015.2
20260507081421 54 329 2.0 8.0 0.00 0.00 0.00 70 1015.1
20260507081012 54 14 2.0 8.0 0.00 0.00 0.00 70 1014.9
20260507080925 53 355 2.0 8.0 0.00 0.00 0.00 70 1015.0
20260507080509 53 356 2.0 6.0 0.00 0.00 0.00 71 1015.1
20260507080412 53 5 2.0 6.0 0.00 0.00 0.00 71 1015.0
20260507080031 53 359 2.0 6.0 0.00 0.00 0.00 71 1015.1
20260507075908 53 324 3.0 8.0 0.00 0.00 0.00 71 1015.0
20260507075513 53 7 2.0 8.0 0.00 0.00 0.00 71 1015.0
20260507075408 53 9 3.0 8.0 0.00 0.00 0.00 71 1015.0
20260507075011 52 352 2.0 8.0 0.00 0.00 0.00 72 1014.9
20260507074907 53 5 2.0 7.0 0.00 0.00 0.00 72 1014.9
20260507074510 52 354 3.0 7.0 0.00 0.00 0.00 72 1015.0
20260507074415 52 332 3.0 7.0 0.00 0.00 0.00 72 1014.9
20260507074010 52 357 3.0 6.0 0.00 0.00 0.00 72 1014.9
20260507073946 52 346 3.0 6.0 0.00 0.00 0.00 72 1014.8
20260507073919 52 56 3.0 6.0 0.00 0.00 0.00 72 1014.9
20260507073511 52 4 3.0 6.0 0.00 0.00 0.00 72 1014.9
20260507073031 52 11 3.0 7.0 0.00 0.00 0.00 73 1015.0
20260507072909 52 28 3.0 7.0 0.00 0.00 0.00 73 1014.8
20260507072509 52 13 3.0 9.0 0.00 0.00 0.00 73 1014.9
20260507072410 51 346 3.0 9.0 0.00 0.00 0.00 73 1014.9
20260507072031 51 16 3.0 9.0 0.00 0.00 0.00 73 1014.9
20260507071913 51 0 3.0 9.0 0.00 0.00 0.00 73 1014.8
20260507071509 51 9 3.0 7.0 0.00 0.00 0.00 74 1014.8
20260507071408 51 346 3.0 6.0 0.00 0.00 0.00 74 1014.8
20260507071009 51 5 3.0 7.0 0.00 0.00 0.00 74 1014.8
20260507070914 51 340 3.0 7.0 0.00 0.00 0.00 74 1014.8
20260507070509 51 8 4.0 9.0 0.00 0.00 0.00 75 1014.8
20260507070418 51 317 4.0 9.0 0.00 0.00 0.00 75 1014.8
20260507070012 51 13 4.0 9.0 0.00 0.00 0.00 75 1014.8
20260507065932 51 24 4.0 9.0 0.00 0.00 0.00 75 1014.8
20260507065509 50 10 3.0 9.0 0.00 0.00 0.00 76 1014.9
20260507065415 50 333 3.0 8.0 0.00 0.00 0.00 76 1014.9
20260507065114 50 25 2.0 6.0 0.00 0.00 0.00 77 1014.7
20260507065039 50 30 3.0 9.0 0.00 0.00 0.00 77 1014.7
20260507065009 50 12 2.0 8.0 0.00 0.00 0.00 76 1014.8
20260507064943 50 21 2.0 8.0 0.00 0.00 0.00 77 1014.7
20260507064509 50 27 2.0 5.0 0.00 0.00 0.00 77 1014.8
20260507064010 50 27 3.0 9.0 0.00 0.00 0.00 77 1014.7
20260507063509 50 26 3.0 9.0 0.00 0.00 0.00 77 1014.8
20260507063413 50 21 2.0 9.0 0.00 0.00 0.00 77 1014.6
20260507063010 50 33 2.0 8.0 0.00 0.00 0.00 77 1014.7
20260507062905 49 29 2.0 8.0 0.00 0.00 0.00 77 1014.6
20260507062511 50 30 3.0 8.0 0.00 0.00 0.00 78 1014.6
20260507062415 49 30 3.0 8.0 0.00 0.00 0.00 78 1014.6
20260507062009 49 24 3.0 8.0 0.00 0.00 0.00 78 1014.6
20260507061909 49 32 3.0 7.0 0.00 0.00 0.00 78 1014.6
20260507061509 49 22 2.0 7.0 0.00 0.00 0.00 78 1014.6
20260507061350 49 13 2.0 7.0 0.00 0.00 0.00 78 1014.6
20260507061329 49 13 2.0 5.0 0.00 0.00 0.00 80 1014.5
20260507061259 49 46 2.0 5.0 0.00 0.00 0.00 79 1014.5
20260507061013 49 24 2.0 6.0 0.00 0.00 0.00 79 1014.5
20260507061010 49 25 2.0 5.0 0.00 0.00 0.00 79 1014.6
20260507060509 49 32 2.0 6.0 0.00 0.00 0.00 79 1014.5
20260507060443 49 57 2.0 6.0 0.00 0.00 0.00 79 1014.5
20260507060011 49 30 2.0 6.0 0.00 0.00 0.00 79 1014.5
20260507055509 49 22 2.0 4.0 0.00 0.00 0.00 80 1014.6
20260507055009 49 24 2.0 5.0 0.00 0.00 0.00 80 1014.5
20260507054847 49 0 2.0 5.0 0.00 0.00 0.00 80 1014.5
20260507054509 48 26 2.0 5.0 0.00 0.00 0.00 80 1014.5
20260507054341 49 31 2.0 5.0 0.00 0.00 0.00 80 1014.4
20260507054009 48 20 2.0 5.0 0.00 0.00 0.00 80 1014.5
20260507053840 49 25 2.0 5.0 0.00 0.00 0.00 80 1014.3
20260507053509 48 12 2.0 5.0 0.00 0.00 0.00 80 1014.4
20260507053334 48 29 2.0 5.0 0.00 0.00 0.00 80 1014.3
20260507053031 48 15 3.0 8.0 0.00 0.00 0.00 80 1014.4
20260507052840 48 334 3.0 8.0 0.00 0.00 0.00 80 1014.3
20260507052510 48 19 3.0 8.0 0.00 0.00 0.00 81 1014.3
20260507052338 48 21 3.0 8.0 0.00 0.00 0.00 81 1014.3
20260507052010 48 19 3.0 7.0 0.00 0.00 0.00 81 1014.4
20260507051838 48 17 2.0 7.0 0.00 0.00 0.00 81 1014.4
20260507051620 48 11 2.0 4.0 0.00 0.00 0.00 81 1014.2
20260507051510 48 25 2.0 4.0 0.00 0.00 0.00 81 1014.3
20260507051427 48 19 1.0 4.0 0.00 0.00 0.00 81 1014.2
20260507051010 48 25 1.0 4.0 0.00 0.00 0.00 81 1014.2
20260507050530 48 20 1.0 5.0 0.00 0.00 0.00 81 1014.2
20260507050528 48 21 2.0 5.0 0.00 0.00 0.00 81 1013.9
20260507050409 48 17 1.0 5.0 0.00 0.00 0.00 81 1014.1
20260507050031 48 27 2.0 5.0 0.00 0.00 0.00 81 1014.0
20260507045509 48 24 2.0 5.0 0.00 0.00 0.00 82 1014.1
20260507045338 48 30 2.0 5.0 0.00 0.00 0.00 82 1014.0
20260507045010 48 18 1.0 5.0 0.00 0.00 0.00 82 1014.0
20260507044853 48 30 1.0 3.0 0.00 0.00 0.00 82 1014.0
20260507044509 48 18 2.0 5.0 0.00 0.00 0.00 82 1014.0
20260507044340 48 350 2.0 5.0 0.00 0.00 0.00 82 1013.9
20260507044009 48 14 2.0 5.0 0.00 0.00 0.00 82 1013.9
20260507043838 48 24 2.0 5.0 0.00 0.00 0.00 82 1013.8
20260507043509 48 13 1.0 4.0 0.00 0.00 0.00 82 1013.9
20260507043338 48 29 1.0 4.0 0.00 0.00 0.00 82 1013.8
20260507043049 48 18 1.0 4.0 0.00 0.00 0.00 82 1013.7
20260507043010 48 8 1.0 4.0 0.00 0.00 0.00 82 1013.7
20260507042511 48 13 1.0 4.0 0.00 0.00 0.00 82 1013.7
20260507042328 48 348 1.0 4.0 0.00 0.00 0.00 82 1013.7
20260507042010 48 12 1.0 4.0 0.00 0.00 0.00 82 1013.7
20260507041834 48 19 1.0 4.0 0.00 0.00 0.00 82 1013.7
20260507041509 48 12 2.0 7.0 0.00 0.00 0.00 82 1013.7
20260507041326 48 34 2.0 7.0 0.00 0.00 0.00 82 1013.6
20260507041009 48 15 3.0 7.0 0.00 0.00 0.00 82 1013.6
20260507040838 48 18 3.0 7.0 0.00 0.00 0.00 82 1013.5
20260507040530 48 16 2.0 5.0 0.00 0.00 0.00 82 1013.5
20260507040328 48 355 2.0 5.0 0.00 0.00 0.00 82 1013.5
20260507040010 48 16 2.0 4.0 0.00 0.00 0.00 81 1013.4
20260507035840 48 17 2.0 6.0 0.00 0.00 0.00 81 1013.5
20260507035827 48 0 2.0 5.0 0.00 0.00 0.00 81 1013.5
20260507035530 48 20 2.0 6.0 0.00 0.00 0.00 81 1013.4
20260507035010 48 14 2.0 6.0 0.00 0.00 0.00 81 1013.4
20260507034826 48 31 2.0 6.0 0.00 0.00 0.00 81 1013.3
20260507034530 48 11 2.0 5.0 0.00 0.00 0.00 81 1013.5
20260507034314 48 348 2.0 5.0 0.00 0.00 0.00 81 1013.4
20260507034010 48 17 2.0 5.0 0.00 0.00 0.00 81 1013.3
20260507033811 48 340 2.0 5.0 0.00 0.00 0.00 81 1013.4
20260507033509 48 16 2.0 5.0 0.00 0.00 0.00 81 1013.4
20260507033316 48 28 2.0 4.0 0.00 0.00 0.00 81 1013.3
20260507033046 48 19 1.0 3.0 0.00 0.00 0.00 81 1013.4
20260507033011 48 6 1.0 4.0 0.00 0.00 0.00 81 1013.5
20260507032530 48 355 1.0 3.0 0.00 0.00 0.00 81 1013.4
20260507032323 48 346 1.0 4.0 0.00 0.00 0.00 81 1013.3
20260507032010 48 360 1.0 4.0 0.00 0.00 0.00 81 1013.3
20260507031816 48 15 1.0 4.0 0.00 0.00 0.00 81 1013.3
20260507031744 48 13 1.0 4.0 0.00 0.00 0.00 81 1013.2
20260507031510 48 360 1.0 4.0 0.00 0.00 0.00 81 1013.3
20260507031010 48 7 1.0 4.0 0.00 0.00 0.00 81 1013.2
20260507030814 49 0 1.0 3.0 0.00 0.00 0.00 81 1013.2
20260507030530 48 17 1.0 3.0 0.00 0.00 0.00 81 1013.2
20260507030310 49 19 1.0 3.0 0.00 0.00 0.00 81 1013.1
20260507030010 48 22 2.0 4.0 0.00 0.00 0.00 81 1013.2
20260507025808 49 5 1.0 4.0 0.00 0.00 0.00 81 1013.1
20260507025509 48 22 1.0 4.0 0.00 0.00 0.00 81 1013.1
20260507025318 49 18 1.0 4.0 0.00 0.00 0.00 81 1013.1
20260507025010 48 20 1.0 5.0 0.00 0.00 0.00 80 1013.2
20260507024816 49 20 2.0 5.0 0.00 0.00 0.00 80 1013.1
20260507024509 48 21 2.0 5.0 0.00 0.00 0.00 80 1013.1
20260507024315 49 5 2.0 5.0 0.00 0.00 0.00 80 1013.1
20260507024010 48 23 2.0 4.0 0.00 0.00 0.00 80 1013.1
20260507023813 49 27 2.0 4.0 0.00 0.00 0.00 80 1013.1
20260507023509 48 12 1.0 4.0 0.00 0.00 0.00 80 1013.1
20260507023308 49 28 1.0 4.0 0.00 0.00 0.00 80 1013.1
20260507023009 48 15 2.0 5.0 0.00 0.00 0.00 80 1013.1
20260507022806 49 11 2.0 5.0 0.00 0.00 0.00 80 1013.0
20260507022509 48 22 2.0 5.0 0.00 0.00 0.00 80 1013.1